K5AJS Weather Reports


time (UTC)temp
F
wind
direction
speed
knots
gust
knots
rain 1hr
in
rain 24hr
in
rain mn
in
humidity
%
barometer
mb
20260506013649 79 82 0.0 0.0 0.00 0.00 0.00 83 1007.7
20260506013150 79 282 0.9 3.5 0.00 0.00 0.00 83 1007.6
20260506012649 79 316 0.9 1.7 0.00 0.00 0.00 82 1007.5
20260506012154 79 311 1.7 1.7 0.00 0.00 0.00 82 1007.5
20260506011652 79 321 2.6 3.5 0.00 0.00 0.00 82 1007.5
20260506011149 79 304 0.9 1.7 0.00 0.00 0.00 81 1007.4
20260506010650 79 306 1.7 2.6 0.00 0.00 0.00 81 1007.3
20260506010149 80 273 0.9 1.7 0.00 0.00 0.00 80 1007.3
20260506005649 80 351 0.9 1.7 0.00 0.00 0.00 80 1007.2
20260506005149 80 82 0.0 0.9 0.00 0.00 0.00 79 1007.1
20260506004651 80 41 0.9 1.7 0.00 0.00 0.00 79 1007.1
20260506004149 80 357 0.9 1.7 0.00 0.00 0.00 78 1007.0
20260506003649 80 317 0.9 1.7 0.00 0.00 0.00 78 1007.0
20260506003149 80 289 0.0 0.0 0.00 0.00 0.00 78 1007.0
20260506002650 80 277 0.9 1.7 0.00 0.00 0.00 77 1006.9
20260506002149 80 284 0.9 0.9 0.00 0.00 0.00 77 1006.9
20260506001650 80 83 0.9 1.7 0.00 0.00 0.00 77 1007.0
20260506001149 80 342 1.7 1.7 0.00 0.00 0.00 77 1006.9
20260506000650 80 275 0.9 1.7 0.00 0.00 0.00 77 1006.9
20260506000149 80 260 1.7 1.7 0.00 0.00 0.00 76 1006.9
20260505235650 81 189 1.7 1.7 0.00 0.00 0.00 76 1006.9
20260505235149 81 283 1.7 2.6 0.00 0.00 0.00 76 1006.8
20260505234649 81 287 1.7 2.6 0.00 0.00 0.00 75 1006.9
20260505234150 81 297 1.7 1.7 0.00 0.00 0.00 75 1006.9
20260505233649 81 301 1.7 2.6 0.00 0.00 0.00 75 1006.9
20260505233149 81 258 2.6 3.5 0.00 0.00 0.00 75 1006.8
20260505232650 81 299 1.7 1.7 0.00 0.00 0.00 75 1006.9
20260505232149 81 59 0.9 1.7 0.00 0.00 0.00 76 1006.8
20260505231649 82 21 0.0 1.7 0.00 0.00 0.00 76 1006.9
20260505231150 82 258 3.5 7.0 0.00 0.00 0.00 75 1007.0
20260505230649 81 334 0.9 0.9 0.00 0.00 0.00 76 1006.9
20260505230150 81 274 1.7 1.7 0.00 0.00 0.00 76 1006.9
20260505225649 81 265 1.7 2.6 0.00 0.00 0.00 75 1007.0
20260505225150 81 312 0.9 1.7 0.00 0.00 0.00 75 1007.0
20260505224650 82 278 3.5 6.1 0.00 0.00 0.00 74 1007.0
20260505224149 82 318 1.7 3.5 0.00 0.00 0.00 74 1007.1
20260505223650 82 275 4.3 5.2 0.00 0.00 0.00 73 1007.1
20260505223149 82 258 1.7 2.6 0.00 0.00 0.00 74 1007.1
20260505222649 82 276 2.6 3.5 0.00 0.00 0.00 74 1007.1
20260505222149 82 285 1.7 2.6 0.00 0.00 0.00 75 1007.1
20260505221649 82 240 2.6 4.3 0.00 0.00 0.00 75 1007.1
20260505221149 82 275 1.7 3.5 0.00 0.00 0.00 75 1007.2
20260505220652 82 281 2.6 4.3 0.00 0.00 0.00 74 1007.3
20260505220151 82 279 3.5 4.3 0.00 0.00 0.00 74 1007.4
20260505215649 82 283 2.6 3.5 0.00 0.00 0.00 74 1007.3
20260505215149 82 282 0.9 2.6 0.00 0.00 0.00 74 1007.3
20260505214650 83 1 1.7 3.5 0.00 0.00 0.00 73 1007.3
20260505214149 82 313 0.9 2.6 0.00 0.00 0.00 75 1007.4
20260505213649 82 305 1.7 2.6 0.00 0.00 0.00 74 1007.5
20260505213149 82 273 2.6 2.6 0.00 0.00 0.00 74 1007.7
20260505212650 82 197 0.9 1.7 0.00 0.00 0.00 74 1007.6
20260505212149 82 252 1.7 2.6 0.00 0.00 0.00 74 1007.7
20260505211649 82 281 2.6 3.5 0.00 0.00 0.00 74 1007.8
20260505211151 82 277 3.5 5.2 0.00 0.00 0.00 73 1007.9
20260505210651 82 293 0.9 3.5 0.00 0.00 0.00 73 1007.9
20260505210150 82 277 2.6 4.3 0.00 0.00 0.00 74 1008.0
20260505205649 82 311 2.6 2.6 0.00 0.00 0.00 73 1008.0
20260505205149 82 292 1.7 3.5 0.00 0.00 0.00 72 1008.2
20260505204650 82 266 2.6 3.5 0.00 0.00 0.00 73 1008.1
20260505204149 82 284 1.7 2.6 0.00 0.00 0.00 73 1008.2
20260505203650 82 276 2.6 3.5 0.00 0.00 0.00 73 1008.2
20260505203149 82 299 1.7 4.3 0.00 0.00 0.00 74 1008.4
20260505202649 82 297 1.7 2.6 0.00 0.00 0.00 74 1008.5
20260505202153 82 275 3.5 4.3 0.00 0.00 0.00 74 1008.5
20260505201653 83 282 2.6 2.6 0.00 0.00 0.00 72 1008.6
20260505201150 83 273 2.6 5.2 0.00 0.00 0.00 72 1008.6
20260505200652 83 290 1.7 4.3 0.00 0.00 0.00 72 1008.6
20260505200152 82 287 1.7 2.6 0.00 0.00 0.00 72 1008.6
20260505195652 82 272 2.6 3.5 0.00 0.00 0.00 73 1008.7
20260505195151 82 252 1.7 3.5 0.00 0.00 0.00 73 1008.7
20260505194649 82 279 1.7 3.5 0.00 0.00 0.00 74 1008.8
20260505194150 82 281 1.7 2.6 0.00 0.00 0.00 73 1008.8
20260505193649 82 283 3.5 4.3 0.00 0.00 0.00 72 1008.8
20260505193150 82 279 0.9 1.7 0.00 0.00 0.00 74 1008.9
20260505192649 82 284 1.7 3.5 0.00 0.00 0.00 74 1008.9
20260505192149 82 277 1.7 3.5 0.00 0.00 0.00 73 1009.0
20260505191649 82 264 2.6 3.5 0.00 0.00 0.00 73 1009.0
20260505191150 81 264 3.5 5.2 0.00 0.00 0.00 74 1009.0
20260505190650 81 277 1.7 1.7 0.00 0.00 0.00 75 1008.9
20260505190149 82 271 2.6 3.5 0.00 0.00 0.00 75 1008.9
20260505185649 82 338 1.7 2.6 0.00 0.00 0.00 76 1009.0
20260505185150 81 280 1.7 2.6 0.00 0.00 0.00 76 1009.1
20260505184654 81 284 1.7 3.5 0.00 0.00 0.00 76 1009.1
20260505184150 81 267 1.7 2.6 0.00 0.00 0.00 76 1009.1
20260505183650 81 273 1.7 2.6 0.00 0.00 0.00 76 1009.2
20260505183151 81 273 2.6 4.3 0.00 0.00 0.00 76 1009.2
20260505182651 81 285 1.7 2.6 0.00 0.00 0.00 76 1009.3
20260505182150 81 257 1.7 2.6 0.00 0.00 0.00 76 1009.4
20260505181650 80 243 0.9 0.9 0.00 0.00 0.00 77 1009.4
20260505181150 80 274 1.7 4.3 0.00 0.00 0.00 77 1009.4
20260505180650 80 267 2.6 3.5 0.00 0.00 0.00 78 1009.5
20260505180149 80 262 2.6 3.5 0.00 0.00 0.00 77 1009.5
20260505175649 80 324 0.9 1.7 0.00 0.00 0.00 77 1009.6
20260505175149 80 297 0.9 1.7 0.00 0.00 0.00 77 1009.6
20260505174650 81 267 1.7 2.6 0.00 0.00 0.00 76 1009.6
20260505174151 80 260 1.7 2.6 0.00 0.00 0.00 77 1009.6
20260505173652 80 283 0.9 0.9 0.00 0.00 0.00 78 1009.6
20260505173150 80 274 1.7 2.6 0.00 0.00 0.00 78 1009.6
20260505172650 80 299 2.6 3.5 0.00 0.00 0.00 78 1009.6
20260505172149 80 292 1.7 2.6 0.00 0.00 0.00 78 1009.6
20260505171649 80 273 0.9 1.7 0.00 0.00 0.00 78 1009.7
20260505171149 79 256 0.9 1.7 0.00 0.00 0.00 79 1009.7
20260505170651 79 183 0.9 1.7 0.00 0.00 0.00 80 1009.7
20260505170150 79 288 1.7 2.6 0.00 0.00 0.00 80 1009.7
20260505165649 79 271 0.9 1.7 0.00 0.00 0.00 81 1009.8
20260505165150 79 240 1.7 1.7 0.00 0.00 0.00 80 1009.8
20260505164650 79 277 0.9 1.7 0.00 0.00 0.00 81 1009.8
20260505164150 79 276 2.6 3.5 0.00 0.00 0.00 81 1009.8
20260505163650 79 259 1.7 1.7 0.00 0.00 0.00 80 1009.7
20260505163150 79 300 1.7 2.6 0.00 0.00 0.00 79 1009.7
20260505162649 79 280 0.9 2.6 0.00 0.00 0.00 79 1009.7
20260505162152 79 281 2.6 4.3 0.00 0.00 0.00 79 1009.6
20260505161649 79 266 3.5 6.1 0.00 0.00 0.00 80 1009.6
20260505161149 79 269 2.6 3.5 0.00 0.00 0.00 81 1009.6
20260505160649 79 282 1.7 2.6 0.00 0.00 0.00 82 1009.7
20260505160150 78 340 0.9 1.7 0.00 0.00 0.00 82 1009.7
20260505153150 77 299 1.7 3.5 0.00 0.00 0.00 85 1009.6
20260505152653 77 270 1.7 2.6 0.00 0.00 0.00 84 1009.5
20260505152150 77 304 1.7 2.6 0.00 0.00 0.00 84 1009.5
20260505151650 77 30 0.9 1.7 0.00 0.00 0.00 85 1009.5
20260505151152 77 278 3.5 5.2 0.00 0.00 0.00 85 1009.4
20260505150649 77 292 3.5 5.2 0.00 0.00 0.00 85 1009.4
20260505140652 75 260 0.0 0.0 0.00 0.00 0.00 89 1009.3
20260505140151 75 59 0.0 0.9 0.00 0.00 0.00 90 1009.4
20260505130150 74 302 0.0 0.9 0.00 0.00 0.00 92 1009.2
20260505124650 73 67 1.7 1.7 0.00 0.00 0.00 93 1009.2
20260505124150 73 281 0.0 0.9 0.00 0.00 0.00 93 1009.1
20260505123649 72 294 0.0 0.9 0.00 0.00 0.00 94 1009.0
20260505123151 72 0 0.0 0.0 0.00 0.00 0.00 94 1009.1
20260505122651 72 286 0.0 0.9 0.00 0.00 0.00 94 1009.0
20260505122150 72 92 0.9 1.7 0.00 0.00 0.00 94 1009.0
20260505121649 72 341 0.0 0.9 0.00 0.00 0.00 94 1008.8
20260505121153 71 311 0.0 0.0 0.00 0.00 0.00 94 1008.8
20260505120650 71 0 0.0 0.0 0.00 0.00 0.00 94 1008.6
20260505120150 71 78 0.0 0.0 0.00 0.00 0.00 94 1008.5
20260505115649 71 0 0.0 0.0 0.00 0.00 0.00 94 1008.5
20260505115149 71 86 0.9 1.7 0.00 0.00 0.00 94 1008.7
20260505114652 71 0 0.0 0.0 0.00 0.00 0.00 94 1008.8
20260505114149 71 324 0.0 0.0 0.00 0.00 0.00 94 1008.8
20260505113649 71 313 0.0 0.9 0.00 0.00 0.00 94 1008.9
20260505113149 71 0 0.0 0.0 0.00 0.00 0.00 94 1008.7
20260505112649 71 4 0.0 0.9 0.00 0.00 0.00 94 1008.7
20260505112149 71 0 0.0 0.0 0.00 0.00 0.00 94 1008.6
20260505111649 71 0 0.0 0.0 0.00 0.00 0.00 94 1008.6
20260505111149 71 130 0.0 0.9 0.00 0.00 0.00 94 1008.5
20260505110649 70 28 0.0 0.0 0.00 0.00 0.00 94 1008.5
20260505110150 70 0 0.0 0.0 0.00 0.00 0.00 94 1008.7
20260505102149 69 121 0.0 0.0 0.00 0.00 0.00 94 1008.6
20260505101651 69 301 0.0 0.9 0.00 0.00 0.00 94 1008.6
20260505101149 69 101 0.0 0.9 0.00 0.00 0.00 94 1008.6
20260505100649 69 0 0.0 0.0 0.00 0.00 0.00 93 1008.8
20260505100150 69 0 0.0 0.0 0.00 0.00 0.00 94 1008.9
20260505095650 69 0 0.0 0.0 0.00 0.00 0.00 94 1009.1
20260505095150 69 0 0.0 0.0 0.00 0.00 0.00 93 1008.9
20260505094650 69 122 0.0 0.9 0.00 0.00 0.00 93 1008.7
20260505094149 69 0 0.0 0.0 0.00 0.00 0.00 93 1008.7
20260505093650 69 105 0.0 0.0 0.00 0.00 0.00 93 1008.7
20260505093151 69 131 0.0 0.9 0.00 0.00 0.00 93 1008.7
20260505092651 69 117 0.0 0.9 0.00 0.00 0.00 93 1008.8
20260505092150 69 124 0.0 0.9 0.00 0.00 0.00 93 1008.9
20260505091653 69 107 0.9 0.9 0.00 0.00 0.00 92 1009.0
20260505091150 69 0 0.0 0.0 0.00 0.00 0.00 92 1009.1
20260505090650 69 0 0.0 0.0 0.00 0.00 0.00 92 1009.1
20260505090149 69 0 0.0 0.0 0.00 0.00 0.00 92 1009.1
20260505085650 69 0 0.0 0.0 0.00 0.00 0.00 91 1009.1
20260505084701 69 136 0.0 0.9 0.00 0.00 0.00 91 1009.2
20260505084149 69 0 0.0 0.0 0.00 0.00 0.00 91 1009.2
20260505083649 69 0 0.0 0.0 0.00 0.00 0.00 91 1009.3
20260505083150 69 0 0.0 0.0 0.00 0.00 0.00 91 1009.3
20260505082649 69 0 0.0 0.0 0.00 0.00 0.00 91 1009.3
20260505082150 69 0 0.0 0.0 0.00 0.00 0.00 91 1009.2
20260505081650 69 0 0.0 0.0 0.00 0.00 0.00 91 1009.3
20260505081150 69 109 0.9 1.7 0.00 0.00 0.00 91 1009.2
20260505080652 69 0 0.0 0.0 0.00 0.00 0.00 91 1009.2
20260505080149 69 0 0.0 0.0 0.00 0.00 0.00 91 1009.3
20260505075651 69 0 0.0 0.0 0.00 0.00 0.00 91 1009.3
20260505075154 69 136 0.9 1.7 0.00 0.00 0.00 91 1009.2
20260505074650 69 0 0.0 0.0 0.00 0.00 0.00 91 1009.3
20260505074149 69 176 0.0 0.9 0.00 0.00 0.00 90 1009.4
20260505073650 69 0 0.0 0.0 0.00 0.00 0.00 90 1009.6
20260505073150 69 0 0.0 0.0 0.00 0.00 0.00 90 1009.6
20260505072649 69 0 0.0 0.0 0.00 0.00 0.00 90 1009.6
20260505072149 69 284 0.0 0.0 0.00 0.00 0.00 90 1009.7
20260505071650 69 0 0.0 0.0 0.00 0.00 0.00 89 1009.7
20260505071152 69 100 0.0 0.0 0.00 0.00 0.00 89 1009.8
20260505070649 69 123 0.0 0.9 0.00 0.00 0.00 89 1009.8
20260505070150 69 0 0.0 0.0 0.00 0.00 0.00 89 1009.9
20260505065649 69 39 0.0 0.0 0.00 0.00 0.00 89 1010.0
20260505065149 69 281 0.0 0.0 0.00 0.00 0.00 89 1010.1
20260505064649 69 0 0.0 0.0 0.00 0.00 0.00 88 1010.1
20260505064149 69 26 0.9 1.7 0.00 0.00 0.00 88 1010.1
20260505063651 69 129 0.9 0.9 0.00 0.00 0.00 88 1010.1
20260505063150 69 140 0.0 0.9 0.00 0.00 0.00 88 1010.1
20260505062649 69 85 0.9 1.7 0.00 0.00 0.00 88 1010.2
20260505062149 69 95 0.9 1.7 0.00 0.00 0.00 88 1010.2
20260505061649 69 112 0.0 0.0 0.00 0.00 0.00 88 1010.3
20260505061149 69 325 0.0 0.0 0.00 0.00 0.00 87 1010.5
20260505060649 69 0 0.0 0.0 0.00 0.00 0.00 87 1010.7
20260505060149 69 0 0.0 0.0 0.00 0.00 0.00 87 1010.6
20260505055650 69 0 0.0 0.0 0.00 0.00 0.00 87 1010.5
20260505055149 69 224 0.0 0.9 0.00 0.00 0.00 87 1010.5
20260505054649 69 303 0.0 0.9 0.00 0.00 0.00 87 1010.5
20260505054149 69 127 0.0 0.0 0.00 0.00 0.00 87 1010.5
20260505053650 69 0 0.0 0.0 0.00 0.00 0.00 87 1010.6
20260505053149 69 293 0.0 0.0 0.00 0.00 0.00 86 1010.7
20260505052650 69 0 0.0 0.0 0.00 0.00 0.00 86 1010.8
20260505052150 69 0 0.0 0.0 0.00 0.00 0.00 86 1010.8
20260505051649 70 299 0.0 0.0 0.00 0.00 0.00 86 1010.9
20260505051149 70 0 0.0 0.0 0.00 0.00 0.00 86 1010.9
20260505050650 70 356 0.9 2.6 0.00 0.00 0.00 86 1010.9
20260505050157 70 285 0.0 1.7 0.00 0.00 0.00 85 1010.9
20260505041649 71 76 0.9 1.7 0.00 0.00 0.00 83 1010.9
20260505041149 71 126 0.0 0.9 0.00 0.00 0.00 83 1011.0
20260505040649 71 63 0.0 1.7 0.00 0.00 0.00 83 1011.1
20260505035749 71 108 0.9 3.5 0.00 0.00 0.00 82 1010.9
20260505035150 71 295 0.9 2.6 0.00 0.00 0.00 82 1011.0
20260505034649 71 122 0.9 1.7 0.00 0.00 0.00 82 1011.1
20260505034149 71 0 0.0 0.0 0.00 0.00 0.00 82 1011.3
20260505033650 71 137 0.0 1.7 0.00 0.00 0.00 82 1011.2
20260505033150 71 301 0.0 0.9 0.00 0.00 0.00 82 1011.2
20260505032650 71 73 0.0 0.9 0.00 0.00 0.00 81 1011.2
20260505032149 71 316 0.0 0.9 0.00 0.00 0.00 81 1011.3
20260505031649 72 181 0.0 0.9 0.00 0.00 0.00 81 1011.3
20260505031149 72 89 0.9 1.7 0.00 0.00 0.00 81 1011.4
20260505030650 72 150 0.0 0.9 0.00 0.00 0.00 80 1011.3
20260505030151 72 99 0.0 0.9 0.00 0.00 0.00 80 1011.3
20260505025651 72 300 0.0 1.7 0.00 0.00 0.00 80 1011.2
20260505025151 72 121 0.0 1.7 0.00 0.00 0.00 80 1011.2
20260505024651 72 294 0.0 1.7 0.00 0.00 0.00 79 1011.2
20260505024151 72 319 0.0 1.7 0.00 0.00 0.00 79 1011.2
20260505023650 73 308 0.0 1.7 0.00 0.00 0.00 79 1011.2
20260505023151 73 350 0.0 0.9 0.00 0.00 0.00 78 1011.2
20260505022651 73 185 0.0 2.6 0.00 0.00 0.00 78 1011.2
20260505022151 73 340 0.0 1.7 0.00 0.00 0.00 78 1011.1
20260505021652 73 196 0.9 1.7 0.00 0.00 0.00 78 1011.0
20260505021152 73 100 0.9 3.5 0.00 0.00 0.00 77 1011.0
20260505020652 73 133 0.9 1.7 0.00 0.00 0.00 77 1011.0
20260505020149 73 286 0.0 1.7 0.00 0.00 0.00 77 1010.9
20260505015650 73 293 0.0 0.9 0.00 0.00 0.00 76 1010.9
20260505015150 74 254 0.9 1.7 0.00 0.00 0.00 75 1010.8
20260505014650 74 335 0.9 2.6 0.00 0.00 0.00 74 1010.8
20260505014150 74 338 0.9 3.5 0.00 0.00 0.00 73 1010.7